Погода в Бородянке

Украина / Киевская область     50°38′44″N   29°55′14″E
В апреле 2022 года жителям России запретили посещать сайт meteo.paraplan.net по решению Генеральной прокуратуры. Аудитория сайта уменьшилась в 10 раз. Владельцы сайта не видят смысла в поддержке погодного сервера в таких условиях. Сайт будет закрыт в октябре.
темп.,
°C
ветер,
м/с
пор.,
м/с
влажн.,
%
обл.,
%
осадки,
мм/ч
давл.,
гПа
погр.,
м
25 сентября, вс
вс2500:00+7з411915 0.0 1015263
03:00+6з412895 0.0 1016310
06:00+5з411925 0.0 1016258
09:00+9з410706 0.0 1016361
12:00+14з58475 0.0 10161561
15:00+15з5748100 0.0 10151843
18:00+13з2565100 0.0 1014175
21:00+9зюз358596 0.1 101585
26 сентября, пн
пн2600:00+8юз348790 0.0 101471
03:00+8юз2288100 0.0 101329
06:00+9ю2476100 0.0 101380
09:00+10ююз2689100 0.3 1013211
12:00+10ю2695100 0.8 1012237
15:00+11ююв2489100 1.0 1012164
18:00+11всв2292100 1.0 101135
21:00+10в2696100 2.1 1010208
27 сентября, вт
вт2700:00+10в2596100 0.1 1009200
03:00+10в2597100 0.1 1008149
06:00+10в2597100 0.0 1007143
09:00+11в3692100 0.0 1006296
12:00+12в4895100 0.3 1004431
15:00+12в51098100 3.0 1002439
18:00+13вюв61296100 1.8 1000616
21:00+12вюв4998100 5.1 1000365
28 сентября, ср
ср2800:00+12юв2599100 0.3 999236
03:00+12з4898100 0.6 998434
06:00+12з4995100 0.0 999530
09:00+12з5992100 0.0 1000715
12:00+14з697696 0.0 1001874
15:00+17з576071 0.1 10021374
18:00+15з49759 0.3 1003496
21:00+10з24930 0.3 100666
29 сентября, чт
чт2900:00+9зюз22915 0.0 100812
03:00+9ю22915 0.0 100918
06:00+8ююв339194 0.0 101054
09:00+12юв3780100 0.0 1010229
12:00+16юв5863100 0.0 1010592
15:00+19ююв5859100 0.0 1009968
18:00+16юв4107899 0.3 1009288
21:00+15вюв51484100 1.3 1010441